This is the latest recevied weather packets stored in our database for station/object KD9ZDW. If no packets are shown the sender has not sent any weather packets the latest 10 day(s).
| Time | Temp. | Humidity | Pressure | Rain* | Wind** | Luminosity | Snow |
|---|---|---|---|---|---|---|---|
| 1777721533 | 0.56° C | 86% | 1020.7 hPa | 0 mm | - | 35 W/m² | - |
| 1777721231 | 0.56° C | 87% | 1020.6 hPa | 0 mm | - | 29 W/m² | - |
| 1777720928 | 0° C | 88% | 1020.8 hPa | 0 mm | - | 18 W/m² | - |
| 1777720625 | 0° C | 88% | 1020.6 hPa | 0 mm | - | 17 W/m² | - |
| 1777720323 | 0° C | 88% | 1020.5 hPa | 0 mm | - | 14 W/m² | - |
| 1777720020 | 0° C | 88% | 1020.5 hPa | 0 mm | - | 12 W/m² | - |
| 1777719717 | 0° C | 88% | 1020.4 hPa | 0 mm | - | 10 W/m² | - |
| 1777719415 | -0.56° C | 88% | 1020.4 hPa | 0 mm | - | 8 W/m² | - |
| 1777719112 | -0.56° C | 88% | 1020.4 hPa | 0 mm | - | 6 W/m² | - |
| 1777718809 | -0.56° C | 88% | 1020.4 hPa | 0 mm | - | 4 W/m² | - |
| 1777718506 | -0.56° C | 87% | 1020.2 hPa | 0 mm | - | 3 W/m² | - |
| 1777718204 | 0° C | 87% | 1020.3 hPa | 0 mm | - | 2 W/m² | - |
| 1777717902 | 0° C | 87% | 1020.3 hPa | 0 mm | - | 1 W/m² | - |
| 1777717598 | 0° C | 87% | 1020.2 hPa | 0 mm | - | 0 W/m² | - |
| 1777717295 | 0° C | 87% | 1020.3 hPa | 0 mm | - | 0 W/m² | - |
| 1777716993 | -0.56° C | 87% | 1020.1 hPa | 0 mm | - | 0 W/m² | - |
| 1777716691 | -0.56° C | 87% | 1020.2 hPa | 0 mm | - | 0 W/m² | - |
| 1777716389 | -0.56° C | 87% | 1020 hPa | 0 mm | - | 0 W/m² | - |
| 1777716087 | -0.56° C | 87% | 1020.1 hPa | 0 mm | - | 0 W/m² | - |
| 1777715785 | 0° C | 87% | 1020.2 hPa | 0 mm | - | 0 W/m² | - |
| 1777715482 | -0.56° C | 86% | 1020 hPa | 0 mm | - | 0 W/m² | - |
| 1777715179 | 0° C | 86% | 1020 hPa | 0 mm | - | 0 W/m² | - |
| 1777714878 | 0° C | 85% | 1020 hPa | 0 mm | - | 0 W/m² | - |
| 1777714575 | 0° C | 85% | 1019.9 hPa | 0 mm | - | 0 W/m² | - |
| 1777714273 | 0° C | 85% | 1020.1 hPa | 0 mm | - | 0 W/m² | - |
* Rain latest hour (hover to see other rain measurements)
** Current wind speed in m/s (hover to see current wind gust speed)